Погода в Пентиктоне

Канада     49°29′34″N   119°36′06″W
темп.,
°C
ветер,
м/с
пор.,
м/с
влажн.,
%
обл.,
%
осадки,
мм/ч
давл.,
гПа
погр.,
м
17 апреля, сб
сб1723:00+7в21480 0.0 102412
02:00+6всв11500 0.0 102511
05:00+5всв11600 0.0 102610
08:00+9ссз12540 0.0 1025192
11:00+16зсз22360 0.0 1023859
14:00+20сз23270 0.0 10211709
17:00+19с23304 0.0 10192270
20:00+12всв22582 0.0 102018
18 апреля, вс
вс1823:00+9в21630 0.0 102111
02:00+8в11693 0.0 102210
05:00+6всв117371 0.0 102210
08:00+10ссз125469 0.0 1021189
11:00+15сз574744 0.1 10191605
14:00+15сз6104130 0.4 10192031
17:00+13ссз712374 0.4 10201873
20:00+7сз476345 0.0 1024475
19 апреля, пн
пн1923:00+3ссв11845 0.1 102715
02:00+2св11895 0.0 102910
05:00+1всв11915 0.0 102910
08:00+5зюз10695 0.0 1028348
11:00+11зюз21415 0.0 10251392
14:00+14з22295 0.0 10221664
17:00+15зюз223017 0.0 10201842
20:00+7ю22565 0.0 102130
20 апреля, вт
вт2023:00+5вюв22595 0.0 102231
02:00+4вюв22615 0.0 102214
05:00+3вюв21634 0.0 102211
08:00+7юз01454 0.0 1021275
11:00+13з22315 0.0 10171233
14:00+17зсз232436 0.0 10152432
17:00+16зсз112539 0.0 10122501
20:00+10ююв214767 0.0 101316
21 апреля, ср
ср2123:00+7вюв225532 0.0 101417
02:00+6вюв226042 0.0 101512
05:00+4вюв11645 0.0 101510
08:00+9ююз11505 0.0 1014265
11:00+16зюз22382 0.0 10121299
14:00+18юз243063 0.0 10102544
17:00+17зюз3532100 0.0 10082490
20:00+11с354986 0.0 1010112